Location: Hobi?a Gr?di?te
(45.4833°N, 22.7833°E)
Time: 05:34:20
(UTC+00:00)

Cosmos 1975 Rocket - Pass Details

Date: 28 January 2023
Orbit: 602 x 632 km, 82.5° (Epoch: 29 March)

Event Time Altitude Azimuth Distance (km) Brightness Sun altitude
Rises 16:31:49 0° 200° (SSW) 2,914 7.0 -11.1°
Reaches altitude 10° 16:34:06 10° 205° (SSW) 2,010 6.3 -11.5°
Maximum altitude 16:38:27 52° 282° (WNW) 790 4.0 -12.3°
Drops below altitude 10° 16:42:50 10° 359° (N) 2,016 5.6 -13.0°
Sets 16:45:07 0° 5° (N) 2,924 6.3 -13.4°
